[[{"header":{"parameterUnit":"m.s-1","parameterCategory":1,"la1":30.2991,"la2":30.254,"lo1":-89.0895,"lo2":-89.0444,"dy":0.0017,"dx":0.0017,"nx":28,"ny":28,"refTime":"2023-08-09T21:00:00:Z","depth":0,"parameterNumber":2,"parameterNumberName":"U-component_of_WINDS"},"data":[0,0,0,0,0,0,0,0,0,0,0,0,0,0,0,0,0,0,0,0,0,0,0,0,0,0,0,0,0,0,0,0,0,0,0,0,0,0,0,0,0,0,0,0,0,0,0,0,0,0,0,0,0,0,0,0,0,0,4.3177,4.3178,0,4.3258,4.3259,4.326,4.3234,4.3232,4.323,4.3228,4.3314,4.3318,4.3322,0,0,0,0,0,0,0,0,0,0,0,0,0,4.3002,4.3006,4.3177,4.3178,4.3179,4.3258,4.3259,4.326,4.3234,4.3232,4.323,4.3228,4.3313,4.3318,4.3322,0,0,0,0,0,0,0,0,0,0,0,0,0,4.308,4.3007,4.3177,4.3175,4.3176,4.3257,4.3259,4.326,4.3234,4.3232,4.3229,4.3227,4.3311,4.3317,4.3323,4.3411,0,0,4.3341,4.3343,0,0,0,0,0,0,0,0,4.3076,4.3087,4.3174,4.3176,4.3176,4.3233,4.3229,4.3311,4.3235,4.3212,4.3228,4.3225,4.3289,4.3297,4.3318,4.3415,4.3419,4.3341,4.3345,4.3347,4.3349,0,0,0,0,0,0,0,4.3071,4.3083,4.3209,4.3176,4.3177,4.3172,4.318,4.3244,4.3265,4.3214,4.3212,4.3222,4.3289,4.3312,4.332,4.342,4.3341,4.3346,4.335,4.3352,4.3595,4.3598,0,0,0,0,0,0,4.3064,4.3079,4.3206,4.3211,4.3119,4.3177,4.3186,4.3217,4.3264,4.3268,4.3224,4.3221,4.3304,4.3313,4.3323,4.3429,4.3347,4.3353,4.3356,4.3592,4.3596,4.3599,0,0,0,0,0,0,4.3061,4.3076,4.3203,4.3145,4.316,4.3183,4.3218,4.322,4.3243,4.3272,4.3275,4.3244,4.3302,4.3314,4.3389,4.3432,4.3355,4.3361,4.3589,4.3593,4.3597,4.3643,0,0,0,0,0,0,4.3056,4.3075,4.3108,4.3146,4.3164,4.3268,4.3221,4.3224,4.3253,4.3249,4.3291,4.3295,4.3301,4.3381,4.3395,4.3439,4.3365,4.3585,4.3591,4.3596,4.3638,4.3649,4.3658,0,0,0,0,0,4.305,4.3118,4.311,4.3125,4.3205,4.327,4.3281,4.3285,4.3257,4.3291,4.3309,4.3294,4.3425,4.3389,4.3405,4.3451,4.3582,4.3589,4.3595,4.3634,4.3647,4.3658,0,0,0,0,0,0,4.3085,4.3123,4.3114,4.3197,4.323,4.3266,4.3308,4.3299,4.3342,4.3336,4.3341,4.335,4.3427,4.3447,4.3405,4.3539,4.35,4.351,4.3523,4.3536,4.3546,4.3539,4.337,0,0,0,0,0,4.3103,4.3152,4.3182,4.3252,4.3269,4.3286,4.3315,4.3315,4.335,4.3365,4.3388,4.3424,4.3473,4.3506,4.3553,4.3641,4.365,4.3681,4.3691,4.3698,4.3707,4.3755,4.3769,4.362,4.362,4.362,0,0,4.314,4.3166,4.3197,4.326,4.3286,4.3337,4.3298,4.3354,4.3392,4.3373,4.3445,4.3464,4.3504,4.3586,4.3624,4.3605,4.375,4.3707,4.3713,4.3717,4.3764,4.3778,4.379,4.3625,4.3624,4.3623,0,0,4.3232,4.3257,4.3318,4.3345,4.3385,4.3396,4.3411,4.3448,4.3459,4.3531,4.3518,4.3565,4.3649,4.3678,4.3704,4.3809,4.3797,4.3824,4.3876,4.3923,4.3935,4.3945,4.3982,4.3996,4.3833,4.3833,4.3833,0,4.3273,4.3348,4.3351,4.3408,4.3436,4.3421,4.3484,4.351,4.3564,4.3584,4.3562,4.3668,4.3694,4.3783,4.3808,4.383,4.3847,4.3819,4.3933,4.3943,4.3953,4.3988,4.4002,4.3836,4.3836,4.3835,4.3835,0,4.3397,4.3449,4.3494,4.3545,4.3579,4.3638,4.3651,4.3685,4.3683,4.3696,4.377,4.3801,4.3854,4.3875,4.3874,4.3964,4.3951,4.3931,4.3891,4.397,4.4003,4.4017,4.384,4.3839,4.3838,4.3838,0,0,4.3514,4.3566,4.3582,4.3605,4.3648,4.369,4.3749,4.38,4.3829,4.3867,4.3916,4.3989,4.397,4.4,4.4002,4.4044,4.4124,4.4019,4.402,4.4037,4.4226,4.424,4.4256,4.4117,4.412,4.4122,4.4222,0,4.361,4.3712,4.3717,4.3811,4.386,4.3846,4.3898,4.3931,4.3945,4.3989,4.4006,4.4057,4.4029,4.4047,4.4087,4.4106,4.4162,4.4099,4.4164,4.4166,4.4153,4.4273,4.4289,4.4382,4.4235,4.4238,4.4239,0,4.3735,4.3776,4.3875,4.3911,4.3932,4.3978,4.4025,4.4067,4.4104,4.4112,4.4145,4.4141,4.4203,4.4162,4.4247,4.4203,4.4231,4.4244,4.4248,4.4254,4.4207,4.4282,4.4412,4.4426,4.426,4.4258,4.4257,0,4.381,4.389,4.3959,4.398,4.4024,4.4057,4.4077,4.4111,4.4142,4.4183,4.4203,4.4252,4.4279,4.4317,4.4327,4.4296,4.4412,4.4372,4.442,4.442,4.4445,4.4443,4.458,4.4463,4.4463,4.4463,4.4463,0,4.3917,4.3978,4.3994,4.4036,4.4104,4.4109,4.4177,4.4195,4.4226,4.4272,4.4264,4.4308,4.4319,4.4365,4.4374,4.4443,4.4455,4.4463,4.4465,4.4464,4.4463,4.4481,4.4475,4.4467,4.4466,4.4465,4.4464,0,4.4012,4.4025,4.41,4.4135,4.4146,4.4194,4.4225,4.4267,4.428,4.4339,4.4353,4.4375,4.4429,4.4443,4.4508,4.4513,4.4595,4.4591,4.4582,4.4582,4.4629,4.4625,4.4783,4.4804,4.4674,4.4675,4.4676,0,4.4079,4.4125,4.4166,4.4196,4.4217,4.4266,4.4297,4.4304,4.4337,4.4383,4.4419,4.4472,4.4514,4.4602,4.4624,4.4674,4.467,4.4722,4.4677,4.4675,4.467,4.4667,4.4672,4.473,4.4732,4.4733,4.4734,0,4.4196,4.42,4.4244,4.4291,4.4328,4.4366,4.4401,4.4427,4.4439,4.4477,4.4531,4.4565,4.4631,4.4684,4.4734,4.4755,4.4747,4.4748,4.4762,4.4761,4.4754,4.4758,4.4605,4.4744,4.4743,4.4742,4.4742,4.4741,4.4278,4.4319,4.4354,4.4403,4.4431,4.4465,4.4505,4.4524,4.4569,4.4623,4.4625,4.4685,4.4721,4.4788,4.4812,4.486,4.4844,4.4864,4.4869,4.4874,4.4878,4.4747,4.4869,4.4869,4.4869,4.4868,4.4868,0,4.4395,4.4416,4.4462,4.4512,4.4552,4.454,4.4579,4.4613,4.4665,4.47,4.4742,4.4805,4.4856,4.4883,4.4934,4.4967,4.4964,4.498,4.4977,4.4982,4.4889,4.4872,4.4981,4.4981,4.4981,4.4981,4.4981,4.4981,4.446,4.4527,4.4536,4.4618,4.4639,4.4697,4.472,4.4752,4.4779,4.485,4.4892,4.4909,4.494,4.4994,4.5041,4.5047,4.5066,4.5084,4.5088,4.5001,4.4989,4.4978,4.4962,4.5088,4.5088,4.5178,4.5178,4.5179]},{"header":{"parameterUnit":"m.s-1","parameterCategory":1,"la1":30.2991,"la2":30.254,"lo1":-89.0895,"lo2":-89.0444,"dy":0.0017,"dx":0.0017,"nx":28,"ny":28,"refTime":"2023-08-09T21:00:00:Z","depth":0,"parameterNumber":3,"parameterNumberName":"V-component_of_WINDS"},"data":[0,0,0,0,0,0,0,0,0,0,0,0,0,0,0,0,0,0,0,0,0,0,0,0,0,0,0,0,0,0,0,0,0,0,0,0,0,0,0,0,0,0,0,0,0,0,0,0,0,0,0,0,0,0,0,0,0,0,1.9718,1.9717,0,1.9673,1.9672,1.9672,1.9661,1.9661,1.9662,1.9662,1.9612,1.9611,1.9609,0,0,0,0,0,0,0,0,0,0,0,0,0,1.979,1.9789,1.9718,1.9717,1.9717,1.9673,1.9672,1.9672,1.9661,1.9661,1.9662,1.9662,1.9613,1.9611,1.9609,0,0,0,0,0,0,0,0,0,0,0,0,0,1.9753,1.9789,1.9718,1.9706,1.9705,1.9673,1.9672,1.9671,1.9661,1.9661,1.9662,1.9662,1.9613,1.9611,1.9609,1.9584,0,0,1.9601,1.96,0,0,0,0,0,0,0,0,1.9755,1.9751,1.9708,1.9707,1.9705,1.9673,1.9679,1.9642,1.9661,1.9677,1.9662,1.9662,1.9632,1.9628,1.9618,1.9582,1.958,1.9601,1.9599,1.9598,1.9598,0,0,0,0,0,0,0,1.9758,1.9753,1.97,1.9708,1.9706,1.9702,1.9697,1.9672,1.9652,1.9676,1.9675,1.967,1.9631,1.9621,1.9617,1.9579,1.9601,1.9599,1.9597,1.9596,1.9518,1.9518,0,0,0,0,0,0,1.9763,1.9755,1.9701,1.9698,1.9732,1.97,1.9695,1.9683,1.9653,1.9649,1.967,1.967,1.9625,1.962,1.9615,1.9583,1.9598,1.9596,1.9595,1.9519,1.9518,1.9518,0,0,0,0,0,0,1.9765,1.9759,1.9703,1.9726,1.9719,1.9698,1.9685,1.9682,1.9671,1.9648,1.9644,1.9663,1.9625,1.9619,1.9592,1.9582,1.9595,1.9593,1.952,1.9519,1.9518,1.9521,0,0,0,0,0,0,1.9767,1.9759,1.9751,1.9726,1.9718,1.9682,1.9684,1.968,1.9668,1.9667,1.9641,1.9637,1.9625,1.9596,1.9589,1.9579,1.9591,1.9521,1.9519,1.9518,1.9521,1.952,1.9519,0,0,0,0,0,1.977,1.9753,1.975,1.9744,1.9707,1.9681,1.9676,1.9664,1.9667,1.9657,1.9642,1.9638,1.9584,1.9593,1.9586,1.9574,1.9521,1.952,1.9518,1.9522,1.952,1.9519,0,0,0,0,0,0,1.9775,1.9749,1.9746,1.9722,1.9704,1.9679,1.9667,1.9662,1.9642,1.9643,1.9627,1.9621,1.9595,1.9582,1.9592,1.9548,1.9552,1.955,1.9558,1.9556,1.9554,1.9558,1.9589,0,0,0,0,0,1.9774,1.9757,1.9734,1.9714,1.9706,1.9688,1.9676,1.9668,1.9649,1.9641,1.9624,1.9604,1.9582,1.9568,1.9547,1.952,1.9513,1.9508,1.9507,1.9506,1.9503,1.9486,1.9483,1.9513,1.9513,1.9513,0,0,1.9771,1.9754,1.9744,1.9715,1.97,1.9681,1.9682,1.9662,1.9647,1.9637,1.9611,1.9598,1.9574,1.9547,1.9533,1.9535,1.9493,1.9504,1.9503,1.9501,1.9484,1.9481,1.9479,1.9512,1.9512,1.9512,0,0,1.9754,1.9741,1.9722,1.9707,1.9686,1.9674,1.9669,1.9646,1.9637,1.961,1.9603,1.9584,1.9548,1.9531,1.9518,1.9494,1.9489,1.9488,1.9481,1.9464,1.9462,1.9459,1.945,1.9447,1.9486,1.9486,1.9486,0,1.9752,1.9724,1.9713,1.9693,1.968,1.9672,1.9652,1.9637,1.9609,1.96,1.9602,1.9556,1.954,1.9507,1.9501,1.9492,1.9484,1.949,1.9463,1.9461,1.9459,1.9449,1.9446,1.9486,1.9486,1.9486,1.9486,0,1.9722,1.9703,1.969,1.9664,1.965,1.963,1.9614,1.96,1.9593,1.9581,1.9553,1.9533,1.9508,1.95,1.9492,1.9466,1.9467,1.9467,1.947,1.9456,1.9446,1.9443,1.9486,1.9486,1.9486,1.9486,0,0,1.9708,1.9676,1.9671,1.9659,1.9634,1.9618,1.9597,1.9573,1.9561,1.9542,1.9523,1.9492,1.9491,1.9476,1.9467,1.9452,1.9433,1.9453,1.9452,1.9449,1.9401,1.94,1.9397,1.943,1.9429,1.9428,1.9402,0,1.9688,1.9652,1.964,1.9609,1.959,1.9582,1.9563,1.9545,1.9533,1.9514,1.9499,1.9477,1.9479,1.9469,1.9455,1.9439,1.9423,1.9441,1.941,1.9409,1.9415,1.9392,1.9392,1.9368,1.9399,1.9398,1.9398,0,1.9659,1.964,1.9608,1.9584,1.9576,1.956,1.9536,1.9518,1.9497,1.9489,1.9472,1.9464,1.944,1.9446,1.9411,1.9424,1.941,1.94,1.9399,1.9395,1.9402,1.9386,1.936,1.9356,1.9392,1.9392,1.9393,0,1.965,1.9617,1.9593,1.9582,1.9555,1.9543,1.9531,1.951,1.9496,1.9475,1.9465,1.9442,1.9428,1.9409,1.9394,1.94,1.936,1.9365,1.9351,1.9352,1.9343,1.9343,1.9313,1.9336,1.9336,1.9336,1.9337,0,1.9628,1.9608,1.9588,1.9573,1.955,1.9537,1.9514,1.9501,1.9482,1.9463,1.9454,1.9436,1.9418,1.9397,1.9385,1.9358,1.9352,1.9344,1.934,1.9344,1.9345,1.9334,1.9335,1.9335,1.9336,1.9336,1.9336,0,1.9614,1.96,1.9573,1.9549,1.9543,1.9527,1.9505,1.949,1.9477,1.9453,1.9447,1.9426,1.9401,1.9385,1.9352,1.9344,1.9314,1.9312,1.9321,1.932,1.9306,1.9307,1.9267,1.9261,1.9289,1.9289,1.9289,0,1.96,1.9585,1.956,1.9547,1.9535,1.9515,1.95,1.9486,1.9471,1.9445,1.9432,1.9407,1.9386,1.9346,1.9327,1.9302,1.9298,1.9286,1.9294,1.9298,1.9296,1.9297,1.9295,1.9284,1.9284,1.9284,1.9284,0,1.9577,1.9571,1.9551,1.9529,1.9512,1.9494,1.9475,1.9465,1.9447,1.9431,1.9406,1.939,1.9357,1.9331,1.9304,1.929,1.9283,1.9282,1.9277,1.9279,1.9285,1.928,1.9317,1.9282,1.9282,1.9283,1.9283,1.9283,1.9562,1.9547,1.9527,1.9505,1.949,1.9472,1.9456,1.9442,1.9421,1.9394,1.9387,1.936,1.9337,1.9301,1.9286,1.9264,1.9265,1.9258,1.9256,1.9254,1.9253,1.929,1.9259,1.9259,1.9259,1.9259,1.9259,0,1.9536,1.9523,1.9503,1.9478,1.946,1.9457,1.9436,1.9421,1.9398,1.9378,1.9358,1.9328,1.9303,1.9283,1.9256,1.9242,1.9238,1.9236,1.9236,1.9232,1.9255,1.9261,1.9239,1.9239,1.9239,1.9239,1.9239,1.9239,1.9521,1.9496,1.9487,1.9454,1.944,1.9415,1.9403,1.9386,1.937,1.9338,1.9317,1.9305,1.9284,1.9256,1.9232,1.9226,1.9216,1.9214,1.9207,1.9229,1.9231,1.9233,1.9239,1.9212,1.9212,1.9186,1.9186,1.9186]}]]